Regional Weather Roundup
Issued by NWS

Home | Current Version | Previous Version | Text Only | Print | Product List | Glossary Off
Versions: 1 2 3 4 5 6 7 8 9 10 11 12 13 14 15 16 17 18 19 20 21 22 23 24 25 26 27 28 29 30 31 32 33 34 35 36 37 38 39 40 41 42 43 44 45 46 47 48 49 50

931
ASUS43 KBIS 231510
RWRND

NORTH DAKOTA REGIONAL WEATHER ROUNDUP
NATIONAL WEATHER SERVICE BISMARCK ND
1000 AM CDT MON OCT 23 2017

NOTE: "FAIR" INDICATES FEW OR NO CLOUDS BELOW 12,000 FEET WITH NO
SIGNIFICANT WEATHER AND/OR OBSTRUCTIONS TO VISIBILITY.


NDZ001>003-009>011-017-231600-
NORTHWEST NORTH DAKOTA

CITY           SKY/WX    TMP DP  RH WIND       PRES   REMARKS
WILLISTON      SUNNY     45  34  65 W13       30.13R
MINOT          CLOUDY    45  35  68 W20G30    30.03R
MINOT AFB      CLOUDY    43  35  74 NW20G29   30.01R
$$

NDZ018>021-031>035-040>046-231600-
SOUTHWEST NORTH DAKOTA

CITY           SKY/WX    TMP DP  RH WIND       PRES   REMARKS
BISMARCK       PTSUNNY   47  37  68 NW17G31   30.07R
DICKINSON      SUNNY     45  33  63 W20       30.13R
GARRISON         N/A     42  35  76 NW22G32   30.06R
HETTINGER ARPT SUNNY     46  31  55 NW28G36   30.17R
$$

NDZ004>008-012>016-024-026-027-054-231600-
NORTHEAST NORTH DAKOTA

CITY           SKY/WX    TMP DP  RH WIND       PRES   REMARKS
GRAND FORKS    CLOUDY    46  39  76 NW25G37   29.86R
GRND FRKS AFB  CLOUDY    44  37  76 NW23G30   29.87R
DEVILS LAKE    CLOUDY    42  38  85 NW20G25   29.95R
$$

NDZ022-023-025-028>030-036>039-047>053-231600-
SOUTHEAST NORTH DAKOTA

CITY           SKY/WX    TMP DP  RH WIND       PRES   REMARKS
FARGO          CLOUDY    47  40  76 NW24G37   29.85R
JAMESTOWN      CLOUDY    45  37  73 NW18G30   29.96R
$$





USA.gov is the U.S. government's official web portal to all federal, state and local government web resources and services.